Change the Weather History Date:

Tuesday, February 18, 2014

  Actual Average (KPUB) Record (KPUB)
Temperature  
Mean Temperature 55 °F 34 °F  
Max Temperature 69 °F 51 °F 73 °F (1980)
Min Temperature 41 °F 18 °F -12 °F (1942)
Degree Days  
Heating Degree Days 10 30  
Month to date heating degree days 583  
Since 1 July heating degree days 4015  
Cooling Degree Days 0 0  
Month to date cooling degree days 0  
Year to date cooling degree days 0  
Growing Degree Days 5 (Base 50)    
Moisture  
Dew Point 11 °F    
Average Humidity 22    
Maximum Humidity 53    
Minimum Humidity 7    
Precipitation  
Precipitation 0.00 in 0.01 in 0.35 in (1947)
Month to date precipitation 0.16  
Year to date precipitation 0.51  
Snow  
Snow 0.00 in 0.20 in 5.00 in (1911)
Month to date snowfall 2.6  
Since 1 July snowfall 20.6  
Snow Depth -    
Sea Level Pressure  
Sea Level Pressure 29.92 in    
Wind  
Wind Speed 19 mph (WNW)    
Max Wind Speed 34 mph    
Max Gust Speed 43 mph    
Visibility 10 miles    
Events      
T = Trace of Precipitation, MM = Missing Value Source: NWS Daily Summary

Daily Weather History Graph

Daily Weather History Graph

Search for Another Location

Airport or City:

Trip Planner

Search our weather history database for the weather conditions in past years. The results will help you decide how hot, cold, wet, or windy it might be!

Date:

Astronomy

Feb. 18, 2014 Rise Set
Actual Time 6:47 AM MST 5:41 PM MST
Civil Twilight 6:20 AM MST 6:08 PM MST
Nautical Twilight 5:49 AM MST 6:39 PM MST
Astronomical Twilight 5:18 AM MST 7:10 PM MST
Moon 9:34 PM MST (2/18) 8:24 AM MST (2/18)
Length of Visible Light 11h 48m
Length of Day
10h 54m
Waning Gibbous, 87% of the Moon is Illuminated
Feb 18
Waning Gibbous
Feb 22
Last Quarter
Mar 1
New
Mar 8
First Quarter
Mar 16
Full

Hourly Weather History & Observations

Time (MST) Temp. Windchill Dew Point Humidity Pressure Visibility Wind Dir Wind Speed Gust Speed Precip Events Conditions
12:15 AM 50.0 °F - 8.6 °F 19% 29.87 in 10.0 mi NW 21.9 mph - N/A   Clear
12:35 AM 50.0 °F - 8.6 °F 19% 29.87 in 10.0 mi NW 20.7 mph - N/A   Clear
12:55 AM 50.0 °F - 8.6 °F 19% 29.86 in 10.0 mi WNW 19.6 mph - N/A   Clear
1:15 AM 50.0 °F - 6.8 °F 17% 29.84 in 10.0 mi WNW 20.7 mph 27.6 mph N/A   Clear
1:35 AM 50.0 °F - 6.8 °F 17% 29.84 in 10.0 mi WNW 23.0 mph - N/A   Clear
1:55 AM 51.8 °F - 8.6 °F 18% 29.84 in 10.0 mi WNW 23.0 mph - N/A   Clear
2:15 AM 50.0 °F - 8.6 °F 19% 29.83 in 10.0 mi WNW 23.0 mph - N/A   Clear
2:35 AM 51.8 °F - 8.6 °F 18% 29.81 in 10.0 mi West 23.0 mph 34.5 mph N/A   Clear
2:55 AM 51.8 °F - 8.6 °F 18% 29.80 in 10.0 mi WNW 29.9 mph 35.7 mph N/A   Clear
3:15 AM 51.8 °F - 8.6 °F 18% 29.79 in 10.0 mi West 23.0 mph 39.1 mph N/A   Clear
3:35 AM 51.8 °F - 8.6 °F 18% 29.78 in 10.0 mi West 28.8 mph 33.4 mph N/A   Clear
3:55 AM 51.8 °F - 8.6 °F 18% 29.79 in 10.0 mi West 26.5 mph 34.5 mph N/A   Clear
4:15 AM 50.0 °F - 10.4 °F 20% 29.80 in 10.0 mi WNW 25.3 mph 31.1 mph N/A   Clear
4:35 AM 50.0 °F - 8.6 °F 19% 29.81 in 10.0 mi WNW 26.5 mph 31.1 mph N/A   Clear
4:55 AM 50.0 °F - 8.6 °F 19% 29.82 in 10.0 mi WNW 23.0 mph 31.1 mph N/A   Clear
5:15 AM 50.0 °F - 8.6 °F 19% 29.82 in 10.0 mi West 16.1 mph 24.2 mph N/A   Clear
5:35 AM 50.0 °F - 10.4 °F 20% 29.82 in 10.0 mi West 18.4 mph - N/A   Clear
5:55 AM 50.0 °F - 10.4 °F 20% 29.82 in 10.0 mi West 18.4 mph 35.7 mph N/A   Clear
6:15 AM 51.8 °F - 10.4 °F 19% 29.84 in 10.0 mi West 17.3 mph 25.3 mph N/A   Clear
6:25 AM 50.0 °F - 10.4 °F 20% 29.85 in 10.0 mi West 12.7 mph - N/A   Clear
11:55 AM 68.0 °F - 1.4 °F 7% 29.89 in 10.0 mi WNW 34.5 mph 42.6 mph N/A   Clear
12:15 PM 68.0 °F - 3.2 °F 8% 29.89 in 10.0 mi WNW 26.5 mph 36.8 mph N/A   Clear
12:35 PM 68.0 °F - 1.4 °F 7% 29.89 in 10.0 mi WNW 26.5 mph 40.3 mph N/A   Clear
12:55 PM 68.0 °F - 1.4 °F 7% 29.89 in 10.0 mi WNW 24.2 mph 38.0 mph N/A   Clear
1:15 PM 68.0 °F - 1.4 °F 7% 29.88 in 10.0 mi NW 27.6 mph 36.8 mph N/A   Clear
1:35 PM 69.8 °F - 3.2 °F 7% 29.88 in 10.0 mi WNW 27.6 mph 33.4 mph N/A   Clear
1:55 PM 69.8 °F - 3.2 °F 7% 29.88 in 10.0 mi West 19.6 mph 26.5 mph N/A   Clear
2:15 PM 68.0 °F - 5.0 °F 8% 29.89 in 10.0 mi WSW 24.2 mph 31.1 mph N/A   Clear
2:35 PM 68.0 °F - 5.0 °F 8% 29.89 in 10.0 mi West 23.0 mph 28.8 mph N/A   Clear
2:55 PM 68.0 °F - 3.2 °F 8% 29.89 in 10.0 mi West 16.1 mph 28.8 mph N/A   Clear
3:15 PM 68.0 °F - 5.0 °F 8% 29.90 in 10.0 mi WSW 17.3 mph 27.6 mph N/A   Clear
3:35 PM 68.0 °F - 5.0 °F 8% 29.91 in 10.0 mi West 17.3 mph 26.5 mph N/A   Clear
3:55 PM 66.2 °F - 3.2 °F 8% 29.92 in 10.0 mi West 16.1 mph 21.9 mph N/A   Clear
4:15 PM 64.4 °F - 3.2 °F 9% 29.92 in 10.0 mi West 11.5 mph 20.7 mph N/A   Clear
4:35 PM 64.4 °F - 3.2 °F 9% 29.93 in 10.0 mi West 15.0 mph 21.9 mph N/A   Clear
4:55 PM 62.6 °F - 3.2 °F 9% 29.93 in 10.0 mi WSW 12.7 mph - N/A   Clear
5:15 PM 62.6 °F - 3.2 °F 9% 29.94 in 10.0 mi West 11.5 mph - N/A   Clear
5:35 PM 57.2 °F - 5.0 °F 12% 29.95 in 10.0 mi WSW 6.9 mph - N/A   Clear
5:55 PM 55.4 °F - 5.0 °F 13% 29.96 in 10.0 mi West 4.6 mph - N/A   Clear
6:15 PM 57.2 °F - 3.2 °F 11% 29.97 in 10.0 mi Calm Calm - N/A   Clear
6:35 PM 50.0 °F - 17.6 °F 28% 29.99 in 10.0 mi East 12.7 mph - N/A   Clear
6:55 PM 48.2 °F - 19.4 °F 32% 30.01 in 10.0 mi ENE 10.4 mph - N/A   Clear
7:15 PM 46.4 °F 43.5 °F 21.2 °F 37% 30.01 in 10.0 mi ENE 5.8 mph - N/A   Clear
7:35 PM 48.2 °F - 21.2 °F 34% 30.02 in 10.0 mi ENE 9.2 mph - N/A   Clear
7:55 PM 48.2 °F - 21.2 °F 34% 30.03 in 10.0 mi North 4.6 mph - N/A   Clear
8:15 PM 46.4 °F 42.9 °F 23.0 °F 40% 30.03 in 10.0 mi NNE 6.9 mph - N/A   Clear
8:35 PM 44.6 °F 40.7 °F 23.0 °F 43% 30.04 in 10.0 mi NE 6.9 mph - N/A   Clear
8:55 PM 46.4 °F 40.7 °F 23.0 °F 40% 30.05 in 10.0 mi East 12.7 mph - N/A   Clear
9:15 PM 44.6 °F 38.8 °F 23.0 °F 43% 30.05 in 10.0 mi ENE 11.5 mph - N/A   Clear
9:35 PM 44.6 °F 39.7 °F 23.0 °F 43% 30.06 in 10.0 mi ENE 9.2 mph - N/A   Clear
9:55 PM 44.6 °F 40.2 °F 24.8 °F 46% 30.06 in 10.0 mi ENE 8.1 mph - N/A   Clear
10:15 PM 44.6 °F 41.4 °F 24.8 °F 46% 30.06 in 10.0 mi NE 5.8 mph - N/A   Clear
10:35 PM 42.8 °F 39.3 °F 24.8 °F 49% 30.05 in 10.0 mi ENE 5.8 mph - N/A   Clear
10:55 PM 42.8 °F 39.3 °F 26.6 °F 53% 30.05 in 10.0 mi ENE 5.8 mph - N/A   Clear
11:15 PM 41.0 °F 37.1 °F 24.8 °F 53% 30.04 in 10.0 mi NE 5.8 mph - N/A   Clear
11:35 PM 41.0 °F 38.0 °F 24.8 °F 53% 30.04 in 10.0 mi NE 4.6 mph - N/A   Clear
11:55 PM 41.0 °F 38.0 °F 24.8 °F 53% 30.03 in 10.0 mi ENE 4.6 mph - N/A   Clear